Volver al catálogo

STARLINK-3315

ActivoComunicacionesVLEO
NORAD 50848·PAYLOAD·🇺🇸 United States

Lanzado Jan 6, 2022 desde Cape Canaveral Space Force Station

Loading…

Próximos Pases (próximas 24 horas)

TLE

ActualizadoSource: CelesTrak SupGP

Época: Sep 14, 2026, 22:05 UTC

1 50848C 22001AX  26257.92062500 -.00006740  00000+0 -19913-3 0  2577
2 50848  53.1596  36.1548 0001190  81.8842 114.4698 15.34395977    12

Sigue STARLINK-3315 en tiempo real con AllMySat

Download on the App Store